EA3E-1 Weather Reports


time (UTC)temp
C
wind
direction
speed
KPH
gust
KPH
rain 1hr
cm
rain 24hr
cm
rain mn
cm
humidity
%
barometer
mb
20260507131333 18 1 9.7 20.9 0.00 2.54 0.03 61 1013.0
20260507130432 19 1 8.0 17.7 0.00 2.54 0.03 62 1013.1
20260507125532 18 1 8.0 20.9 0.00 2.54 0.03 61 1013.1
20260507124632 19 1 6.4 19.3 0.00 2.54 0.03 59 1013.1
20260507123732 19 1 6.4 14.5 0.00 2.54 0.03 62 1013.1
20260507122834 18 1 9.7 17.7 0.00 2.54 0.03 62 1013.2
20260507121932 18 1 8.0 19.3 0.00 2.54 0.03 64 1013.0
20260507121032 18 1 8.0 19.3 0.00 2.54 0.03 65 1013.0
20260507120132 18 1 8.0 16.1 0.00 2.54 0.03 66 1013.0
20260507115232 18 1 6.4 16.1 0.00 2.54 0.03 67 1013.0
20260507114332 18 1 6.4 12.9 0.00 2.54 0.03 66 1013.1
20260507113432 18 1 6.4 14.5 0.00 2.54 0.03 67 1013.3
20260507112532 18 1 6.4 16.1 0.00 2.54 0.03 66 1013.4
20260507111632 18 1 6.4 14.5 0.00 2.54 0.03 66 1013.4
20260507110732 18 1 6.4 16.1 0.00 2.54 0.03 67 1013.4
20260507105832 18 1 6.4 12.9 0.00 2.54 0.03 66 1013.4
20260507104032 18 1 4.8 12.9 0.00 2.54 0.03 68 1013.6
20260507103132 18 1 4.8 12.9 0.00 2.54 0.03 69 1013.7
20260507102232 18 1 4.8 9.7 0.00 2.54 0.03 69 1013.7
20260507101332 17 1 6.4 16.1 0.00 2.54 0.03 70 1013.8
20260507095532 17 1 1.6 6.4 0.00 2.54 0.03 68 1013.9
20260507094632 17 1 3.2 4.8 0.00 2.54 0.03 70 1014.0
20260507093732 17 1 1.6 9.7 0.00 2.54 0.03 70 1014.0
20260507091932 17 1 3.2 9.7 0.00 2.54 0.03 70 1013.8
20260507091032 16 1 3.2 9.7 0.00 2.54 0.03 70 1013.8
20260507090132 17 1 1.6 8.0 0.00 2.54 0.03 70 1013.8
20260507084332 16 1 4.8 6.4 0.00 2.54 0.03 73 1014.0
20260507083432 16 1 3.2 11.3 0.00 2.54 0.03 74 1014.0
20260507082532 16 1 3.2 8.0 0.00 2.54 0.03 75 1014.2
20260507081632 15 1 3.2 8.0 0.00 2.54 0.03 75 1014.2
20260507074931 15 1 3.2 8.0 0.00 2.54 0.03 77 1014.3
20260507074032 15 1 1.6 6.4 0.00 2.54 0.03 76 1014.2
20260507073132 15 1 1.6 4.8 0.00 2.54 0.03 73 1014.2
20260507072231 14 1 1.6 6.4 0.00 2.54 0.03 71 1014.1
20260507071331 14 1 3.2 4.8 0.00 2.54 0.03 63 1014.0
20260507070432 13 1 1.6 6.4 0.00 2.54 0.03 63 1014.0
20260507065532 13 1 0.0 1.6 0.00 2.54 0.03 61 1014.0
20260507064631 13 1 1.6 1.6 0.00 2.54 0.03 61 1013.9
20260507061931 13 0 0.0 0.0 0.00 2.54 0.03 61 1013.7
20260507061031 12 0 0.0 0.0 0.00 2.54 0.03 61 1013.6
20260507055231 12 0 0.0 0.0 0.00 2.54 0.03 61 1013.5
20260507054331 11 0 0.0 0.0 0.00 2.54 0.03 61 1013.5
20260507052531 11 1 0.0 1.6 0.00 2.54 0.03 61 1013.4
20260507051631 11 0 0.0 0.0 0.00 2.54 0.03 61 1013.4
20260507045831 11 1 0.0 3.2 0.00 2.54 0.03 61 1013.3
20260507044031 11 0 0.0 0.0 0.03 2.54 0.03 61 1013.3
20260507043131 11 0 0.0 0.0 0.03 2.54 0.03 62 1013.3
20260507042231 11 0 0.0 0.0 0.03 2.54 0.03 61 1013.3
20260507041331 11 0 0.0 0.0 0.03 2.54 0.03 61 1013.2
20260507040431 11 0 0.0 0.0 0.03 2.54 0.03 61 1013.2
20260507035531 11 0 0.0 0.0 0.03 2.54 0.03 61 1013.2
20260507033731 11 0 0.0 0.0 0.00 2.51 0.00 61 1013.2
20260507032831 12 1 0.0 3.2 0.00 2.51 0.00 61 1013.1
20260507031031 12 1 1.6 3.2 0.00 2.51 0.00 61 1013.0
20260507030131 12 1 0.0 4.8 0.00 2.51 0.00 61 1013.1
20260507025231 12 1 3.2 4.8 0.00 2.51 0.00 61 1013.2
20260507024331 12 1 3.2 6.4 0.00 2.51 0.00 61 1013.2
20260507021631 12 0 0.0 0.0 0.00 2.51 0.00 61 1013.2
20260507020731 12 0 0.0 0.0 0.00 2.51 0.00 61 1013.2
20260507015831 12 1 1.6 3.2 0.00 2.51 0.00 61 1013.2
20260507014931 12 1 1.6 3.2 0.00 2.51 0.00 61 1013.1
20260507014031 12 1 3.2 4.8 0.00 2.51 0.00 61 1013.2
20260507013131 12 1 3.2 4.8 0.00 2.51 0.00 61 1013.4
20260507012230 12 1 1.6 4.8 0.00 2.51 0.00 61 1013.5
20260507011330 12 1 0.0 3.2 0.00 2.51 0.00 61 1013.6
20260507010430 13 1 3.2 4.8 0.00 2.51 0.00 61 1013.6
20260507003730 13 1 1.6 4.8 0.00 2.51 0.00 61 1013.9
20260507002830 13 1 0.0 4.8 0.00 2.51 0.00 61 1013.9
20260507001930 13 1 0.0 3.2 0.00 2.51 0.00 61 1013.9
20260507001030 13 0 0.0 0.0 0.00 2.51 0.00 62 1014.0
20260506235230 13 0 0.0 0.0 0.00 2.51 0.00 62 1014.0
20260506234330 13 0 0.0 0.0 0.00 2.51 0.00 62 1014.1
20260506233430 13 1 3.2 3.2 0.00 2.51 0.00 63 1014.2
20260506232530 13 1 3.2 4.8 0.00 2.51 0.00 63 1014.1
20260506231630 13 1 4.8 6.4 0.00 2.51 0.00 64 1014.1
20260506230730 13 1 1.6 8.0 0.00 2.51 0.00 64 1014.2
20260506224930 13 1 1.6 4.8 0.00 2.51 0.00 63 1014.2
20260506224030 13 1 3.2 4.8 0.00 2.51 0.00 62 1014.2
20260506223130 13 358 3.2 6.4 0.00 2.51 0.00 62 1014.1
20260506222230 13 1 4.8 6.4 0.00 2.51 0.00 62 1014.1
20260506221330 13 358 6.4 9.7 0.00 2.51 0.00 61 1014.1
20260506220430 13 356 4.8 11.3 0.00 2.51 0.00 61 1014.1
20260506215530 13 1 4.8 8.0 0.00 2.51 2.51 61 1014.2
20260506214630 12 1 3.2 8.0 0.00 2.51 2.51 61 1014.1
20260506213730 12 1 3.2 6.4 0.00 2.51 2.51 61 1014.1
20260506212830 12 1 0.0 8.0 0.00 2.51 2.51 61 1014.1
20260506211930 13 1 0.0 3.2 0.00 2.51 2.51 61 1014.1
20260506211030 13 0 0.0 0.0 0.00 2.51 2.51 61 1014.0
20260506210130 13 0 0.0 0.0 0.00 2.51 2.51 61 1014.0
20260506205230 13 0 0.0 0.0 0.03 2.51 2.51 61 1014.1
20260506204330 13 1 3.2 3.2 0.03 2.51 2.51 61 1014.1
20260506203430 13 1 1.6 4.8 0.03 2.51 2.51 61 1014.1
20260506202530 13 1 3.2 4.8 0.03 2.51 2.51 61 1014.0
20260506201630 13 1 3.2 9.7 0.03 2.51 2.51 61 1013.9
20260506200730 13 1 6.4 11.3 0.03 2.51 2.51 61 1013.8
20260506195830 13 1 6.4 12.9 0.03 2.51 2.51 61 1013.7
20260506194930 13 1 6.4 11.3 0.00 2.49 2.49 61 1013.5
20260506194030 13 1 8.0 14.5 0.00 2.49 2.49 61 1013.5
20260506193130 13 1 8.0 14.5 0.00 2.49 2.49 61 1013.3
20260506192230 13 1 6.4 11.3 0.00 2.49 2.49 61 1013.2
20260506191330 13 1 4.8 9.7 0.00 2.49 2.49 61 1013.1
20260506190429 13 1 4.8 9.7 0.00 2.59 2.49 61 1013.0
20260506185530 13 1 6.4 12.9 0.00 2.59 2.49 61 1012.9
20260506184629 13 1 6.4 12.9 0.00 2.59 2.49 61 1012.9
20260506183729 13 1 6.4 12.9 0.00 2.59 2.49 61 1012.8
20260506182830 13 1 6.4 14.5 0.00 2.59 2.49 61 1012.7
20260506181930 13 1 6.4 14.5 0.00 2.59 2.49 61 1012.6
20260506181030 13 1 4.8 9.7 0.00 2.59 2.49 61 1012.4
20260506175229 13 1 4.8 9.7 0.05 2.59 2.49 61 1012.1
20260506173429 13 1 4.8 11.3 0.08 2.59 2.49 61 1011.8
20260506172529 13 1 3.2 9.7 0.08 2.59 2.49 61 1011.9
20260506171629 13 1 3.2 8.0 0.08 2.59 2.49 61 1011.9
20260506170729 13 1 3.2 6.4 0.08 2.59 2.49 61 1011.6
20260506165829 13 1 3.2 6.4 0.05 2.54 2.44 61 1011.9
20260506164929 13 1 3.2 6.4 0.05 2.54 2.44 62 1011.9
20260506164029 13 1 3.2 6.4 0.05 2.54 2.44 62 1011.8
20260506163129 13 1 6.4 11.3 0.15 2.51 2.41 62 1011.7
20260506161329 13 1 6.4 9.7 1.65 2.51 2.41 63 1011.7
20260506160429 13 1 9.7 19.3 2.36 2.51 2.41 63 1011.6
20260506155529 13 1 9.7 19.3 2.39 2.49 2.39 63 1011.5
20260506153729 13 1 16.1 37.0 2.39 2.49 2.39 65 1010.9
20260506152829 12 1 19.3 33.8 2.26 2.36 2.29 67 1010.9
20260506151929 12 1 17.7 41.8 1.73 1.85 1.78 73 1011.3
20260506151029 13 1 14.5 41.8 0.41 0.69 0.51 77 1010.6
20260506144329 16 1 9.7 20.9 0.00 0.86 0.00 72 1010.2
20260506143429 16 1 9.7 20.9 0.00 0.89 0.00 71 1010.2
20260506141629 17 1 9.7 19.3 0.00 0.99 0.00 70 1010.4
20260506140729 17 1 8.0 24.1 0.00 0.99 0.00 68 1010.7
20260506135829 17 1 9.7 27.4 0.00 0.99 0.00 68 1010.6
20260506134929 17 1 8.0 24.1 0.00 0.99 0.00 68 1010.9
20260506134029 17 1 8.0 19.3 0.00 0.99 0.00 68 1011.0
20260506133129 17 1 8.0 20.9 0.00 0.99 0.00 68 1011.1